Time,TemperatureF,DewpointF,PressureIn,WindDirection,WindDirectionDegrees,WindSpeedMPH,WindSpeedGustMPH,Humidity,HourlyPrecipIn,Conditions,Clouds,dailyrainin,SoftwareType,DateUTC
2013-08-21 00:00:00,68.1,61.1,30.02,SSW,203,0.0,0.0,78,0.00,,,0.00,WUHU216HW,2013-08-21 05:00:00,
2013-08-21 00:05:00,68.1,61.1,30.02,SSW,203,0.0,0.0,78,0.00,,,0.00,WUHU216HW,2013-08-21 05:05:00,
2013-08-21 00:29:00,67.6,60.9,30.02,SSW,203,1.1,1.1,79,0.00,,,0.00,WUHU216HW,2013-08-21 05:29:00,
2013-08-21 00:30:00,67.6,60.9,30.02,SSW,203,1.1,1.1,79,0.00,,,0.00,WUHU216HW,2013-08-21 05:30:00,
2013-08-21 00:35:00,67.6,60.9,30.02,SSW,203,1.1,1.1,79,0.00,,,0.00,WUHU216HW,2013-08-21 05:35:00,
2013-08-21 00:59:00,67.0,60.7,30.01,South,180,1.8,1.8,80,0.00,,,0.00,WUHU216HW,2013-08-21 05:59:00,
2013-08-21 01:00:00,67.0,60.7,30.01,South,180,1.8,1.8,80,0.00,,,0.00,WUHU216HW,2013-08-21 06:00:00,
2013-08-21 01:05:00,67.0,60.7,30.01,South,180,1.8,1.8,80,0.00,,,0.00,WUHU216HW,2013-08-21 06:05:00,
2013-08-21 01:29:00,66.8,60.8,30.01,SSE,158,1.1,1.1,81,0.00,,,0.00,WUHU216HW,2013-08-21 06:29:00,
2013-08-21 01:30:00,66.8,60.8,30.01,SSE,158,1.1,1.1,81,0.00,,,0.00,WUHU216HW,2013-08-21 06:30:00,
2013-08-21 01:35:00,66.8,60.8,30.01,SSE,158,1.1,1.1,81,0.00,,,0.00,WUHU216HW,2013-08-21 06:35:00,
2013-08-21 01:59:00,66.5,60.9,30.01,South,180,1.1,1.1,82,0.00,,,0.00,WUHU216HW,2013-08-21 06:59:00,
2013-08-21 02:00:00,66.5,60.9,30.01,South,180,1.1,1.1,82,0.00,,,0.00,WUHU216HW,2013-08-21 07:00:00,
2013-08-21 02:05:00,66.5,60.9,30.01,South,180,1.1,1.1,82,0.00,,,0.00,WUHU216HW,2013-08-21 07:05:00,
2013-08-21 02:29:00,66.1,60.5,30.01,SSE,158,0.7,0.7,82,0.00,,,0.00,WUHU216HW,2013-08-21 07:29:00,
2013-08-21 02:30:00,66.1,60.5,30.01,SSE,158,0.7,0.7,82,0.00,,,0.00,WUHU216HW,2013-08-21 07:30:00,
2013-08-21 02:35:00,66.1,60.5,30.01,SSE,158,0.7,0.7,82,0.00,,,0.00,WUHU216HW,2013-08-21 07:35:00,
2013-08-21 02:59:00,65.4,59.8,30.01,South,180,0.0,0.0,82,0.00,,,0.00,WUHU216HW,2013-08-21 07:59:00,
2013-08-21 03:00:00,65.4,59.8,30.01,South,180,0.0,0.0,82,0.00,,,0.00,WUHU216HW,2013-08-21 08:00:00,
2013-08-21 03:05:00,65.4,59.8,30.01,South,180,0.0,0.0,82,0.00,,,0.00,WUHU216HW,2013-08-21 08:05:00,
2013-08-21 03:29:00,64.9,59.6,30.01,SSW,203,0.0,0.0,83,0.00,,,0.00,WUHU216HW,2013-08-21 08:29:00,
2013-08-21 03:30:00,64.9,59.6,30.01,SSW,203,0.0,0.0,83,0.00,,,0.00,WUHU216HW,2013-08-21 08:30:00,
2013-08-21 03:35:00,64.9,59.6,30.01,SSW,203,0.0,0.0,83,0.00,,,0.00,WUHU216HW,2013-08-21 08:35:00,
2013-08-21 03:59:00,64.3,59.1,30.01,SSW,203,0.4,0.4,83,0.00,,,0.00,WUHU216HW,2013-08-21 08:59:00,
2013-08-21 04:00:00,64.3,59.1,30.01,SSW,203,0.4,0.4,83,0.00,,,0.00,WUHU216HW,2013-08-21 09:00:00,
2013-08-21 04:05:00,64.3,59.1,30.01,SSW,203,0.4,0.4,83,0.00,,,0.00,WUHU216HW,2013-08-21 09:05:00,
2013-08-21 04:29:00,63.8,58.9,30.00,SSW,203,0.4,0.4,84,0.00,,,0.00,WUHU216HW,2013-08-21 09:29:00,
2013-08-21 04:30:00,63.8,58.9,30.00,SSW,203,0.4,0.4,84,0.00,,,0.00,WUHU216HW,2013-08-21 09:30:00,
2013-08-21 04:35:00,63.8,58.9,30.00,SSW,203,0.4,0.4,84,0.00,,,0.00,WUHU216HW,2013-08-21 09:35:00,
2013-08-21 04:59:00,63.6,58.7,30.00,South,180,0.4,0.4,84,0.00,,,0.00,WUHU216HW,2013-08-21 09:59:00,
2013-08-21 05:00:00,63.6,58.7,30.00,South,180,0.4,0.4,84,0.00,,,0.00,WUHU216HW,2013-08-21 10:00:00,
2013-08-21 05:05:00,63.6,58.7,30.00,South,180,0.4,0.4,84,0.00,,,0.00,WUHU216HW,2013-08-21 10:05:00,
2013-08-21 05:29:00,63.2,58.3,30.01,SSW,203,0.0,0.0,84,0.00,,,0.00,WUHU216HW,2013-08-21 10:29:00,
2013-08-21 05:30:00,63.2,58.3,30.01,SSW,203,0.0,0.0,84,0.00,,,0.00,WUHU216HW,2013-08-21 10:30:00,
2013-08-21 05:35:00,63.2,58.3,30.01,SSW,203,0.0,0.0,84,0.00,,,0.00,WUHU216HW,2013-08-21 10:35:00,
2013-08-21 05:59:00,62.9,58.3,30.01,SSW,203,0.0,0.0,85,0.00,,,0.00,WUHU216HW,2013-08-21 10:59:00,
2013-08-21 06:00:00,62.9,58.3,30.01,SSW,203,0.0,0.0,85,0.00,,,0.00,WUHU216HW,2013-08-21 11:00:00,
2013-08-21 06:05:00,62.9,58.3,30.01,SSW,203,0.0,0.0,85,0.00,,,0.00,WUHU216HW,2013-08-21 11:05:00,
2013-08-21 06:29:00,62.7,58.1,30.02,SSE,158,0.0,0.0,85,0.00,,,0.00,WUHU216HW,2013-08-21 11:29:00,
2013-08-21 06:30:00,62.7,58.1,30.02,SSE,158,0.0,0.0,85,0.00,,,0.00,WUHU216HW,2013-08-21 11:30:00,
2013-08-21 06:35:00,62.7,58.1,30.02,SSE,158,0.0,0.0,85,0.00,,,0.00,WUHU216HW,2013-08-21 11:35:00,
2013-08-21 06:59:00,62.9,58.7,30.03,SSE,158,0.7,0.7,86,0.00,,,0.00,WUHU216HW,2013-08-21 11:59:00,
2013-08-21 07:00:00,62.9,58.7,30.03,SSE,158,0.7,0.7,86,0.00,,,0.00,WUHU216HW,2013-08-21 12:00:00,
2013-08-21 07:05:00,62.9,58.7,30.03,SSE,158,0.7,0.7,86,0.00,,,0.00,WUHU216HW,2013-08-21 12:05:00,
2013-08-21 07:30:00,63.4,59.1,30.04,SSW,203,0.4,0.4,86,0.00,,,0.00,WUHU216HW,2013-08-21 12:30:00,
2013-08-21 07:35:00,63.4,59.1,30.04,SSW,203,0.4,0.4,86,0.00,,,0.00,WUHU216HW,2013-08-21 12:35:00,
2013-08-21 07:59:00,65.4,61.1,30.04,South,180,1.8,1.8,86,0.00,,,0.00,WUHU216HW,2013-08-21 12:59:00,
2013-08-21 08:00:00,65.4,61.1,30.04,South,180,1.8,1.8,86,0.00,,,0.00,WUHU216HW,2013-08-21 13:00:00,
2013-08-21 08:05:00,65.4,61.1,30.04,South,180,1.8,1.8,86,0.00,,,0.00,WUHU216HW,2013-08-21 13:05:00,
2013-08-21 08:29:00,68.1,62.8,30.05,SW,225,1.1,1.1,83,0.00,,,0.00,WUHU216HW,2013-08-21 13:29:00,
2013-08-21 08:30:00,68.1,62.8,30.05,SW,225,1.1,1.1,83,0.00,,,0.00,WUHU216HW,2013-08-21 13:30:00,
2013-08-21 08:35:00,68.1,62.8,30.05,SW,225,1.1,1.1,83,0.00,,,0.00,WUHU216HW,2013-08-21 13:35:00,
2013-08-21 08:59:00,70.4,64.7,30.05,SSE,158,3.8,3.8,82,0.00,,,0.00,WUHU216HW,2013-08-21 13:59:00,
2013-08-21 09:00:00,70.4,64.7,30.05,SSE,158,3.8,3.8,82,0.00,,,0.00,WUHU216HW,2013-08-21 14:00:00,
2013-08-21 09:05:00,70.4,64.7,30.05,SSE,158,3.8,3.8,82,0.00,,,0.00,WUHU216HW,2013-08-21 14:05:00,
2013-08-21 09:29:00,73.0,65.8,30.05,SSE,158,1.3,1.3,78,0.00,,,0.00,WUHU216HW,2013-08-21 14:29:00,
2013-08-21 09:30:00,73.0,65.8,30.05,SSE,158,1.3,1.3,78,0.00,,,0.00,WUHU216HW,2013-08-21 14:30:00,
2013-08-21 09:35:00,73.0,65.8,30.05,SSE,158,1.3,1.3,78,0.00,,,0.00,WUHU216HW,2013-08-21 14:35:00,
2013-08-21 09:59:00,75.3,67.0,30.05,SW,225,0.4,0.4,75,0.00,,,0.00,WUHU216HW,2013-08-21 14:59:00,
2013-08-21 10:00:00,75.3,67.0,30.05,SW,225,0.4,0.4,75,0.00,,,0.00,WUHU216HW,2013-08-21 15:00:00,
2013-08-21 10:05:00,75.3,67.0,30.05,SW,225,0.4,0.4,75,0.00,,,0.00,WUHU216HW,2013-08-21 15:05:00,
2013-08-21 10:29:00,77.6,67.7,30.06,SSW,203,3.4,3.4,71,0.00,,,0.00,WUHU216HW,2013-08-21 15:29:00,
2013-08-21 10:30:00,77.6,67.7,30.06,SSW,203,3.4,3.4,71,0.00,,,0.00,WUHU216HW,2013-08-21 15:30:00,
2013-08-21 10:35:00,77.6,67.7,30.06,SSW,203,3.4,3.4,71,0.00,,,0.00,WUHU216HW,2013-08-21 15:35:00,
2013-08-21 11:00:00,79.8,68.5,30.06,SSE,158,1.6,1.6,68,0.00,,,0.00,WUHU216HW,2013-08-21 16:00:00,
2013-08-21 11:05:00,79.8,68.5,30.06,SSE,158,1.6,1.6,68,0.00,,,0.00,WUHU216HW,2013-08-21 16:05:00,
2013-08-21 11:30:00,81.8,68.7,30.05,SSW,203,2.2,2.2,64,0.00,,,0.00,WUHU216HW,2013-08-21 16:30:00,
2013-08-21 11:35:00,81.8,68.7,30.05,SSW,203,2.2,2.2,64,0.00,,,0.00,WUHU216HW,2013-08-21 16:35:00,
2013-08-21 12:00:00,83.8,69.7,30.04,SSE,158,2.7,2.7,62,0.00,,,0.00,WUHU216HW,2013-08-21 17:00:00,
2013-08-21 12:05:00,83.8,69.7,30.04,SSE,158,2.7,2.7,62,0.00,,,0.00,WUHU216HW,2013-08-21 17:05:00,
2013-08-21 12:30:00,85.4,70.2,30.04,South,180,2.2,2.2,60,0.00,,,0.00,WUHU216HW,2013-08-21 17:30:00,
2013-08-21 12:35:00,85.4,70.2,30.04,South,180,2.2,2.2,60,0.00,,,0.00,WUHU216HW,2013-08-21 17:35:00,
2013-08-21 13:00:00,87.2,70.9,30.04,SSE,158,1.3,1.3,58,0.00,,,0.00,WUHU216HW,2013-08-21 18:00:00,
2013-08-21 13:05:00,87.2,70.9,30.04,SSE,158,1.3,1.3,58,0.00,,,0.00,WUHU216HW,2013-08-21 18:05:00,
2013-08-21 13:30:00,88.4,71.0,30.03,SSW,203,3.4,3.4,56,0.00,,,0.00,WUHU216HW,2013-08-21 18:30:00,
2013-08-21 13:35:00,88.4,71.0,30.03,SSW,203,3.4,3.4,56,0.00,,,0.00,WUHU216HW,2013-08-21 18:35:00,
2013-08-21 13:59:00,89.7,70.5,30.03,SSW,203,4.7,4.7,53,0.00,,,0.00,WUHU216HW,2013-08-21 18:59:00,
2013-08-21 14:00:00,89.7,70.5,30.03,SSW,203,4.7,4.7,53,0.00,,,0.00,WUHU216HW,2013-08-21 19:00:00,
2013-08-21 14:05:00,89.7,70.5,30.03,SSW,203,4.7,4.7,53,0.00,,,0.00,WUHU216HW,2013-08-21 19:05:00,
2013-08-21 14:29:00,90.6,70.8,30.01,SW,225,2.9,2.9,52,0.00,,,0.00,WUHU216HW,2013-08-21 19:29:00,
2013-08-21 14:30:00,90.6,70.8,30.01,SW,225,2.9,2.9,52,0.00,,,0.00,WUHU216HW,2013-08-21 19:30:00,
2013-08-21 14:35:00,90.6,70.8,30.01,SW,225,2.9,2.9,52,0.00,,,0.00,WUHU216HW,2013-08-21 19:35:00,
2013-08-21 14:59:00,91.5,71.6,30.01,SSW,203,3.1,3.1,52,0.00,,,0.00,WUHU216HW,2013-08-21 19:59:00,
2013-08-21 15:00:00,91.5,71.6,30.01,SSW,203,3.1,3.1,52,0.00,,,0.00,WUHU216HW,2013-08-21 20:00:00,
2013-08-21 15:05:00,91.5,71.6,30.01,SSW,203,3.1,3.1,52,0.00,,,0.00,WUHU216HW,2013-08-21 20:05:00,
2013-08-21 15:29:00,92.6,72.0,30.00,South,180,1.1,1.1,51,0.00,,,0.00,WUHU216HW,2013-08-21 20:29:00,
2013-08-21 15:30:00,92.6,72.0,30.00,South,180,1.1,1.1,51,0.00,,,0.00,WUHU216HW,2013-08-21 20:30:00,
2013-08-21 15:35:00,92.6,72.0,30.00,South,180,1.1,1.1,51,0.00,,,0.00,WUHU216HW,2013-08-21 20:35:00,
2013-08-21 15:59:00,92.8,71.0,30.00,SSE,158,2.0,2.0,49,0.00,,,0.00,WUHU216HW,2013-08-21 20:59:00,
2013-08-21 16:00:00,92.8,71.0,30.00,SSE,158,2.0,2.0,49,0.00,,,0.00,WUHU216HW,2013-08-21 21:00:00,
2013-08-21 16:05:00,92.8,71.0,30.00,SSE,158,2.0,2.0,49,0.00,,,0.00,WUHU216HW,2013-08-21 21:05:00,
2013-08-21 16:29:00,92.8,70.4,29.99,SSE,158,1.8,1.8,48,0.00,,,0.00,WUHU216HW,2013-08-21 21:29:00,
2013-08-21 16:30:00,92.8,70.4,29.99,SSE,158,1.8,1.8,48,0.00,,,0.00,WUHU216HW,2013-08-21 21:30:00,
2013-08-21 16:35:00,92.8,70.4,29.99,SSE,158,1.8,1.8,48,0.00,,,0.00,WUHU216HW,2013-08-21 21:35:00,
2013-08-21 16:59:00,93.1,71.3,29.99,South,180,3.1,3.1,49,0.00,,,0.00,WUHU216HW,2013-08-21 21:59:00,
2013-08-21 17:00:00,93.1,71.3,29.99,South,180,3.1,3.1,49,0.00,,,0.00,WUHU216HW,2013-08-21 22:00:00,
2013-08-21 17:05:00,93.1,71.3,29.99,South,180,3.1,3.1,49,0.00,,,0.00,WUHU216HW,2013-08-21 22:05:00,
2013-08-21 17:29:00,93.3,70.8,29.99,SSW,203,4.0,4.0,48,0.00,,,0.00,WUHU216HW,2013-08-21 22:29:00,
2013-08-21 17:30:00,93.3,70.8,29.99,SSW,203,4.0,4.0,48,0.00,,,0.00,WUHU216HW,2013-08-21 22:30:00,
2013-08-21 17:35:00,93.3,70.8,29.99,SSW,203,4.0,4.0,48,0.00,,,0.00,WUHU216HW,2013-08-21 22:35:00,
2013-08-21 17:59:00,92.8,71.0,29.98,SSW,203,2.0,2.0,49,0.00,,,0.00,WUHU216HW,2013-08-21 22:59:00,
2013-08-21 18:00:00,92.8,71.0,29.98,SSW,203,2.0,2.0,49,0.00,,,0.00,WUHU216HW,2013-08-21 23:00:00,
2013-08-21 18:05:00,92.8,71.0,29.98,SSW,203,2.0,2.0,49,0.00,,,0.00,WUHU216HW,2013-08-21 23:05:00,
2013-08-21 18:29:00,92.6,72.0,29.98,South,180,0.7,0.7,51,0.00,,,0.00,WUHU216HW,2013-08-21 23:29:00,
2013-08-21 18:30:00,92.6,72.0,29.98,South,180,0.7,0.7,51,0.00,,,0.00,WUHU216HW,2013-08-21 23:30:00,
2013-08-21 18:35:00,92.6,72.0,29.98,South,180,0.7,0.7,51,0.00,,,0.00,WUHU216HW,2013-08-21 23:35:00,
2013-08-21 18:59:00,90.1,70.9,29.98,SSE,158,1.6,1.6,53,0.00,,,0.00,WUHU216HW,2013-08-21 23:59:00,
2013-08-21 19:00:00,90.1,70.9,29.98,SSE,158,1.6,1.6,53,0.00,,,0.00,WUHU216HW,2013-08-22 00:00:00,
2013-08-21 19:05:00,90.1,70.9,29.98,SSE,158,1.6,1.6,53,0.00,,,0.00,WUHU216HW,2013-08-22 00:05:00,
2013-08-21 19:29:00,85.9,70.2,29.97,SSW,203,0.0,0.0,59,0.00,,,0.00,WUHU216HW,2013-08-22 00:29:00,
2013-08-21 19:30:00,85.9,70.2,29.97,SSW,203,0.0,0.0,59,0.00,,,0.00,WUHU216HW,2013-08-22 00:30:00,
2013-08-21 19:35:00,85.9,70.2,29.97,SSW,203,0.0,0.0,59,0.00,,,0.00,WUHU216HW,2013-08-22 00:35:00,
2013-08-21 19:59:00,82.0,68.9,29.98,SSW,203,0.2,0.2,64,0.00,,,0.00,WUHU216HW,2013-08-22 00:59:00,
2013-08-21 20:00:00,82.0,68.9,29.98,SSW,203,0.2,0.2,64,0.00,,,0.00,WUHU216HW,2013-08-22 01:00:00,
2013-08-21 20:05:00,82.0,68.9,29.98,SSW,203,0.2,0.2,64,0.00,,,0.00,WUHU216HW,2013-08-22 01:05:00,
2013-08-21 20:29:00,78.2,66.6,29.98,SSW,203,0.0,0.0,67,0.00,,,0.00,WUHU216HW,2013-08-22 01:29:00,
2013-08-21 20:30:00,78.2,66.6,29.98,SSW,203,0.0,0.0,67,0.00,,,0.00,WUHU216HW,2013-08-22 01:30:00,
2013-08-21 20:35:00,78.2,66.6,29.98,SSW,203,0.0,0.0,67,0.00,,,0.00,WUHU216HW,2013-08-22 01:35:00,
2013-08-21 20:59:00,75.5,65.2,29.99,SSW,203,0.0,0.0,70,0.00,,,0.00,WUHU216HW,2013-08-22 01:59:00,
2013-08-21 21:00:00,75.5,65.2,29.99,SSW,203,0.0,0.0,70,0.00,,,0.00,WUHU216HW,2013-08-22 02:00:00,
2013-08-21 21:05:00,75.5,65.2,29.99,SSW,203,0.0,0.0,70,0.00,,,0.00,WUHU216HW,2013-08-22 02:05:00,
2013-08-21 21:30:00,73.5,64.5,29.99,SSW,203,0.0,0.0,73,0.00,,,0.00,WUHU216HW,2013-08-22 02:30:00,
2013-08-21 21:35:00,73.5,64.5,29.99,SSW,203,0.0,0.0,73,0.00,,,0.00,WUHU216HW,2013-08-22 02:35:00,
2013-08-21 21:59:00,71.7,63.5,29.99,South,180,0.0,0.0,75,0.00,,,0.00,WUHU216HW,2013-08-22 02:59:00,
2013-08-21 22:00:00,71.7,63.5,29.99,South,180,0.0,0.0,75,0.00,,,0.00,WUHU216HW,2013-08-22 03:00:00,
2013-08-21 22:05:00,71.7,63.5,29.99,South,180,0.0,0.0,75,0.00,,,0.00,WUHU216HW,2013-08-22 03:05:00,
2013-08-21 22:29:00,70.4,63.0,30.00,SSW,203,0.0,0.0,77,0.00,,,0.00,WUHU216HW,2013-08-22 03:29:00,
2013-08-21 22:30:00,70.4,63.0,30.00,SSW,203,0.0,0.0,77,0.00,,,0.00,WUHU216HW,2013-08-22 03:30:00,
2013-08-21 22:35:00,70.4,63.0,30.00,SSW,203,0.0,0.0,77,0.00,,,0.00,WUHU216HW,2013-08-22 03:35:00,
2013-08-21 22:59:00,69.4,62.0,30.00,SW,225,0.0,0.0,77,0.00,,,0.00,WUHU216HW,2013-08-22 03:59:00,
2013-08-21 23:00:00,69.4,62.0,30.00,SW,225,0.0,0.0,77,0.00,,,0.00,WUHU216HW,2013-08-22 04:00:00,
2013-08-21 23:01:00,69.4,62.0,30.00,SW,225,0.0,0.0,77,0.00,,,0.00,WUHU216HW,2013-08-22 04:01:00,
2013-08-21 23:06:00,69.4,62.0,30.00,SW,225,0.0,0.0,77,0.00,,,0.00,WUHU216HW,2013-08-22 04:06:00,
2013-08-21 23:29:00,68.6,61.9,30.00,SSW,203,0.0,0.0,79,0.00,,,0.00,WUHU216HW,2013-08-22 04:29:00,
2013-08-21 23:30:00,68.6,61.9,30.00,SSW,203,0.0,0.0,79,0.00,,,0.00,WUHU216HW,2013-08-22 04:30:00,
2013-08-21 23:35:00,68.6,61.9,30.00,SSW,203,0.0,0.0,79,0.00,,,0.00,WUHU216HW,2013-08-22 04:35:00,
2013-08-21 23:59:00,67.9,61.6,30.00,SSW,203,0.0,0.0,80,0.00,,,0.00,WUHU216HW,2013-08-22 04:59:00,